Regional Weather Roundup
Issued by NWS Newport/Morehead, NC

Current Version | Previous Version | Graphics & Text | Print | Product List | Glossary Off
Versions: 1 2 3 4 5 6 7 8 9 10 11 12 13 14 15 16 17 18 19 20 21 22 23 24 25 26 27 28 29 30 31 32 33 34 35 36 37 38 39 40 41 42 43 44 45 46 47 48 49 50
068 ASUS42 KMHX 100224 RWRMHX WEATHER ROUNDUP FOR EASTERN NORTH CAROLINA NATIONAL WEATHER SERVICE NEWPORT/MOREHEAD CITY NC 900 PM EST FRI DEC 09 2016 NOTE: "FAIR" INDICATES FEW OR NO CLOUDS BELOW 12,000 FEET WITH NO SIGNIFICANT WEATHER AND/OR OBSTRUCTIONS TO VISIBILITY NCZ015>017-031-032-045>047-102-103-100300- NORTH COAST CITY SKY/WX TMP DP RH WIND PRES REMARKS EDENTON CLEAR 32 22 67 CALM 30.45R ELIZABETH CITY CLEAR 29 18 63 MISG 30.42S KITTY HAWK CLEAR 37 22 55 NW8 30.40S MANTEO CLEAR 37 18 44 N10 30.42S $$ NCZ045>047-081-094-103-104-100300- CENTRAL COAST CITY SKY/WX TMP DP RH WIND PRES REMARKS FRISCO CLEAR 39 20 46 VRB6 30.42R $$ NCZ095-097-098-100-101-100300- SOUTHERN COAST CITY SKY/WX TMP DP RH WIND PRES REMARKS BEAUFORT CLEAR 35 23 61 N6 30.44S CEDAR ISLAND NOT AVBL JACKSONVILLE CLEAR 31 22 69 NW5 30.45S PINEY ISLAND CLEAR N/A N/A N/A N10 30.43R WILMINGTON CLEAR 31 25 78 N3 30.46R $$ NCZ011>013-027>030-043-044-078>080-089-090>093-098-100300- COASTAL PLAIN CITY SKY/WX TMP DP RH WIND PRES REMARKS AHOSKIE CLEAR 27 20 74 CALM 30.45R CLINTON CLEAR 31 22 68 CALM 30.46S ELIZABETHTOWN CLEAR 30 24 78 CALM 30.46R GOLDSBORO CLEAR 31 17 56 NW3 30.44S GREENVILLE CLEAR 28 21 74 CALM 30.45S HAVELOCK CLEAR 34 21 59 NW7 30.45R KENANSVILLE CLEAR 25 23 93 CALM 30.46R KINSTON CLEAR 27 23 86 CALM 30.46S NEW BERN CLEAR 31 21 66 NW6 30.45F RICHLANDS CLEAR 27 23 85 CALM 30.45F ROCKY MOUNT CLEAR 27 22 81 CALM 30.45S WASHINGTON CLEAR 30 19 63 CALM 30.45S WHITEVILLE CLEAR 32 25 75 CALM 30.46R $$ AMZ130-135-150-152-154-156-158-170-250-252-270-ANZ085-086-088-633-658-670-100300- MARINE OBSERVATIONS STATION/POSITION TIME TEMP WIND PRES WAVE SWELL AIR SEA DIR/SP/G HT/PER HT/PER (UTC) (F) (DEG/KT/KT) (MB) (FT/S) (FT/S) CHESAPEAKE LIGHT NOT AVBL 64 E VA BEACH 0150 43 58 330/ 19/ 25 1028.1 6/ 6 2/12 DUCK 0200 38 52 320/ 12/ 16 1029.1 2 E DUCK NOT AVBL OREGON INLET 0200 38 51 320/ 9/ 14 1029.7 13E OREGON INLT NOT AVBL HATTERAS CG 0200 41 54 330/ 13/ 19 1029.7 DIAMOND BUOY 0150 43 76 350/ 17/ 23 1029.6 5/10 3/10 CAPE LOOKOUT 0100 40 340/ 13/ 15 1030.1 BEAUFORT LAB 0200 39 51 360/ 8/ 10 1029.6 30 SE NEW RVR IN 0208 44 69 20/ 14/ 19 1030.5 30 SE NEW RVR IN 0213 69 N/A 3/ 4 27 SE WRIGHTSVLE 0208 43 68 360/ 14/ 19 1030.4 5 SE WRIGHTSVLE NOT AVBL 225 S CAPE HAT 0150 58 73 360/ 16/ 21 1026.3 6/ 8 3/ 8 41 SE CHARLESTON 0150 50 71 10/ 14/ 19 1029.8 4/ 6 2/ 9 $$

USA.gov is the U.S. government's official web portal to all federal, state and local government web resources and services.